Regional Weather Roundup
Issued by NWS Newport/Morehead, NC

Current Version | Previous Version | Text Only | Print | Product List | Glossary Off
Versions: 1 2 3 4 5 6 7 8 9 10 11 12 13 14 15 16 17 18 19 20 21 22 23 24 25 26 27 28 29 30 31 32 33 34 35 36 37 38 39 40 41 42 43 44 45 46 47 48 49 50
000 ASUS42 KMHX 300122 RWRMHX WEATHER ROUNDUP FOR EASTERN NORTH CAROLINA NATIONAL WEATHER SERVICE NEWPORT/MOREHEAD CITY NC 900 PM EDT WED OCT 29 2014 NOTE: "FAIR" INDICATES FEW OR NO CLOUDS BELOW 12,000 FEET WITH NO SIGNIFICANT WEATHER AND/OR OBSTRUCTIONS TO VISIBILITY NCZ015>017-031-032-045>047-102-103-300200- NORTH COAST CITY SKY/WX TMP DP RH WIND PRES REMARKS EDENTON CLOUDY 63 59 87 CALM 29.93S ELIZABETH CITY MOCLDY 61 56 83 CALM 29.93S KITTY HAWK CLOUDY 67 64 89 S3 29.92S MANTEO CLOUDY 67 65 92 SW5 29.93S $$ NCZ045>047-081-094-103-104-300200- CENTRAL COAST CITY SKY/WX TMP DP RH WIND PRES REMARKS FRISCO PTCLDY 71 67 87 SW8 29.95S SWANQUARTER N/A 68 N/A N/A S9 29.91S $$ NCZ095-097-098-100-101-300200- SOUTHERN COAST CITY SKY/WX TMP DP RH WIND PRES REMARKS BEAUFORT PTCLDY 71 66 84 SW10 29.95S CEDAR ISLAND N/A 68 N/A N/A S5 29.97S JACKSONVILLE MOCLDY 69 63 81 SW6 29.94S PINEY ISLAND MOCLDY 69 63 81 S6 29.94F WILMINGTON MOCLDY 70 65 84 S8 29.95S $$ NCZ011>013-027>030-043-044-078>080-089-090>093-098-300200- COASTAL PLAIN CITY SKY/WX TMP DP RH WIND PRES REMARKS AHOSKIE NOT AVBL CLINTON CLOUDY 71 60 68 CALM 29.93S ELIZABETHTOWN CLOUDY 70 63 78 S3 29.94S GOLDSBORO MOCLDY 69 65 89 N6 29.93R GREENVILLE RAIN 66 61 82 NW10G16 29.97R HAVELOCK MOCLDY 69 64 84 S6 29.95S KENANSVILLE CLOUDY 68 60 75 CALM 29.94S KINSTON MOCLDY 66 59 77 W9 29.95R NEW BERN CLOUDY 70 63 78 S6 29.95S RICHLANDS CLOUDY 68 61 77 S7 29.94F ROCKY MOUNT CLOUDY 61 59 93 N10 29.96F WASHINGTON CLOUDY 65 60 83 CALM 29.93S WHITEVILLE DRIZZLE 69 65 86 S7 29.95S $$ AMZ130-135-150-152-154-156-158-170-250-252-270-ANZ085-086-088-633-658-670-300200- MARINE OBSERVATIONS STATION/POSITION TIME TEMP WIND PRES WAVE SWELL AIR SEA DIR/SP/G HT/PER HT/PER (UTC) (F) (DEG/KT/KT) (MB) (FT/S) (FT/S) CHESAPEAKE LIGHT 0100 62 10/ 23/ 24 1014.3 64 E VA BEACH 0100 69 67 210/ 10/ 12 1012.7 3/ 6 2/ 6 DUCK 0100 69 68 230/ 5/ 6 1012.6 2 E DUCK NOT AVBL 10 NE DUCK 0100 67 N/A 3/ 7 OREGON INLET 0100 68 69 200/ 10/ 12 1013.5 13E OREGON INLT 0100 70 N/A 3/ 7 HATTERAS CG 0100 73 72 230/ 6/ 9 1014.5 DIAMOND BUOY 0100 76 220/ 17/ 21 1013.9 3/ 4 2/ 8 17 S OCRACOKE 0000 VRB 17/ 19 1014.2 CAPE LOOKOUT 0100 72 220/ 8/ 10 1014.1 BEAUFORT LAB 0100 71 71 220/ 6/ 9 1013.4 30 SE NEW RIVER 0100 74 74 220/ 14/ 16 1014.0 3/ 5 5 SE WRIGHTSVLE 0100 69 71 230/ 12/ 14 N/A 225 S CAPE HAT 0002 75 76 200/ 6/ 6 1017.5 2/ 8 2/ 8 41 SE CHARLESTON 0100 76 77 210/ 12/ 14 1015.1 2/ 4 2/ 9 $$

USA.gov is the U.S. government's official web portal to all federal, state and local government web resources and services.